Overview Statistics Trail Chart Weather Telemetry Raw packets
 

This is the latest recevied weather packets stored in our database for station/object KA1JKB. If no packets are shown the sender has not sent any weather packets the latest 10 day(s).

<< 85 86 87 88 89 90 91 >>
Time Temp. Humidity Pressure Rain* Wind** Luminosity Snow
1787814241 14.44° C 99% 1010.1 hPa 0 mm - 0 W/m² -
1787813935 14.44° C 99% 1009.8 hPa 0 mm - 0 W/m² -
1787813631 14.44° C 99% 1009.8 hPa 0 mm - 0 W/m² -
1787813326 14.44° C 99% 1009.9 hPa 0 mm - 0 W/m² -
1787813023 14.44° C 99% 1010 hPa 0 mm - 0 W/m² -
1787812722 14.44° C 99% 1009.9 hPa 0 mm - 0 W/m² -
1787812422 14.44° C 99% 1010.1 hPa 0 mm - 0 W/m² -
1787812117 15° C 99% 1010.2 hPa 0 mm - 0 W/m² -
1787811813 15° C 99% 1010.1 hPa 0 mm - 0 W/m² -
1787811512 15° C 99% 1010.1 hPa 0 mm - 0 W/m² -
1787811207 15° C 99% 1010.1 hPa 0 mm - 0 W/m² -
1787810903 15° C 99% 1010.1 hPa 0 mm - 0 W/m² -
1787810598 13.89° C 99% 1010.1 hPa 0 mm - 0 W/m² -
1787810296 13.33° C 99% 1010 hPa 0 mm - 0 W/m² -
1787809992 13.89° C 99% 1009.9 hPa 0 mm - 0 W/m² -
1787809687 13.89° C 99% 1010.1 hPa 0 mm - 0 W/m² -
1787809383 13.89° C 99% 1010.1 hPa 0 mm - 0 W/m² -
1787809079 14.44° C 99% 1010 hPa 0 mm - 0 W/m² -
1787808775 13.89° C 99% 1010 hPa 0 mm - 0 W/m² -
1787808474 13.89° C 99% 1010 hPa 0 mm - 0 W/m² -
1787808174 13.89° C 99% 1010.2 hPa 0 mm - 0 W/m² -
1787807872 13.89° C 99% 1010 hPa 0 mm - 0 W/m² -
1787807568 13.89° C 99% 1010.2 hPa 0 mm - 0 W/m² -
1787807263 13.89° C 99% 1010.2 hPa 0 mm - 0 W/m² -
1787806958 13.89° C 99% 1010.1 hPa 0 mm - 0 W/m² -

* Rain latest hour (hover to see other rain measurements)
** Current wind speed in m/s (hover to see current wind gust speed)